Weather History for KSYF - May, 2012

Change the Weather History Date:

Wednesday, May 16, 2012

  Actual Average (KGLD) Record (KGLD)
Temperature  
Mean Temperature 68 °F 59 °F  
Max Temperature 90 °F 73 °F 94 °F (1996)
Min Temperature 45 °F 46 °F 27 °F (1945)
Degree Days  
Heating Degree Days 0 7  
Month to date heating degree days 141  
Since 1 July heating degree days 5796  
Cooling Degree Days 2 1  
Month to date cooling degree days 14  
Year to date cooling degree days 18  
Growing Degree Days 18 (Base 50)    
Moisture  
Dew Point 28 °F    
Average Humidity 29    
Maximum Humidity 61    
Minimum Humidity 6    
Precipitation  
Precipitation 0.00 in 0.10 in 1.64 in (1947)
Month to date precipitation 1.33  
Year to date precipitation 4.86  
Snow  
Snow - 0.00 in - ()
Month to date snowfall 0.5  
Since 1 July snowfall 35.5  
Snow Depth -    
Sea Level Pressure  
Sea Level Pressure 30.04 in    
Wind  
Wind Speed 11 mph ()    
Max Wind Speed 25 mph    
Max Gust Speed 31 mph    
Visibility 9.7 miles    
Events      
T = Trace of Precipitation, MM = Missing Value Source: Averaged Metar Reports

Daily Weather History Graph

Daily Weather History Graph

Search for Another Location

Airport or City:

Trip Planner

Search our weather history database for the weather conditions in past years. The results will help you decide how hot, cold, wet, or windy it might be!

Date:

Astronomy

May. 16, 2012 Rise Set
Actual Time 6:31 AM CDT 8:56 PM CDT
Civil Twilight 6:00 AM CDT 9:27 PM CDT
Nautical Twilight 5:22 AM CDT 10:05 PM CDT
Astronomical Twilight 4:40 AM CDT 10:47 PM CDT
Moon 4:01 AM CDT (5/16) 5:14 PM CDT (5/16)
Length of Visible Light 15h 26m
Length of Day
14h 25m
Waning Crescent, 16% of the Moon is Illuminated
May 16
Waning Crescent
May 20
New
May 28
First Quarter
Jun 4
Full
Jun 11
Last Quarter

Hourly Weather History & Observations

Time (CDT) Temp. Windchill Dew Point Humidity Pressure Visibility Wind Dir Wind Speed Gust Speed Precip Events Conditions
12:15 AM 57.2 °F - 37.6 °F 48% 30.15 in 10.0 mi ESE 10.4 mph - N/A   Clear
12:35 AM 55.8 °F - 37.4 °F 50% 30.15 in 10.0 mi ESE 9.2 mph - N/A   Clear
12:55 AM 53.4 °F - 37.8 °F 55% 30.15 in 10.0 mi ESE 5.8 mph - N/A   Clear
1:15 AM 52.2 °F - 37.8 °F 58% 30.15 in 10.0 mi ESE 6.9 mph - N/A   Clear
1:35 AM 53.6 °F - 36.5 °F 52% 30.15 in 10.0 mi ESE 9.2 mph - N/A   Clear
1:55 AM 52.7 °F - 36.9 °F 55% 30.15 in 10.0 mi SE 8.1 mph - N/A   Clear
2:15 AM 53.6 °F - 34.7 °F 49% 30.15 in 10.0 mi SE 9.2 mph - N/A   Clear
2:35 AM 53.1 °F - 34.3 °F 49% 30.15 in 10.0 mi SE 10.4 mph - N/A   Clear
2:55 AM 52.9 °F - 34.0 °F 49% 30.14 in 10.0 mi SE 9.2 mph - N/A   Clear
3:15 AM 52.3 °F - 34.2 °F 50% 30.14 in 10.0 mi ESE 8.1 mph - N/A   Clear
3:35 AM 51.4 °F - 33.8 °F 51% 30.14 in 10.0 mi ESE 8.1 mph - N/A   Clear
3:55 AM 51.6 °F - 33.1 °F 49% 30.14 in 10.0 mi SE 6.9 mph - N/A   Clear
4:15 AM 51.4 °F - 32.9 °F 49% 30.13 in 10.0 mi SE 10.4 mph - N/A   Clear
4:35 AM 51.1 °F - 32.9 °F 50% 30.13 in 10.0 mi SE 5.8 mph - N/A   Clear
4:55 AM 50.2 °F - 32.9 °F 52% 30.14 in 10.0 mi ESE 3.5 mph - N/A   Clear
5:15 AM 48.7 °F - 32.9 °F 54% 30.14 in 10.0 mi ESE 3.5 mph - N/A   Clear
5:35 AM 47.3 °F - 33.3 °F 58% 30.14 in 10.0 mi SE 4.6 mph - N/A   Clear
5:55 AM 46.8 °F - 32.7 °F 58% 30.14 in 10.0 mi Calm Calm - N/A   Clear
6:15 AM 45.7 °F 43.4 °F 32.9 °F 61% 30.13 in 10.0 mi ESE 4.6 mph - N/A   Clear
6:35 AM 46.8 °F - 32.7 °F 58% 30.13 in 10.0 mi Calm Calm - N/A   Clear
6:55 AM 46.9 °F - 32.7 °F 58% 30.13 in 10.0 mi SE 3.5 mph - N/A   Clear
7:15 AM 47.1 °F - 33.8 °F 60% 30.13 in 10.0 mi SE 3.5 mph - N/A   Clear
7:35 AM 49.5 °F - 33.8 °F 55% 30.14 in 10.0 mi SE 5.8 mph - N/A   Clear
7:55 AM 52.2 °F - 33.6 °F 49% 30.14 in 10.0 mi SE 6.9 mph - N/A   Clear
8:15 AM 55.0 °F - 32.7 °F 43% 30.13 in 10.0 mi SE 11.5 mph 16.1 mph N/A   Clear
8:35 AM 57.7 °F - 32.4 °F 38% 30.12 in 10.0 mi SSE 11.5 mph 16.1 mph N/A   Clear
8:55 AM 60.1 °F - 31.3 °F 34% 30.12 in 10.0 mi SE 17.3 mph 23.0 mph N/A   Clear
9:15 AM 63.1 °F - 30.9 °F 30% 30.13 in 10.0 mi SSE 12.7 mph - N/A   Clear
9:35 AM 64.9 °F - 31.3 °F 28% 30.12 in 10.0 mi SSE 15.0 mph 19.6 mph N/A   Clear
9:55 AM 67.3 °F - 30.6 °F 25% 30.12 in 10.0 mi SSE 11.5 mph - N/A   Clear
10:15 AM 68.4 °F - 31.8 °F 26% 30.12 in 10.0 mi South 10.4 mph - N/A   Clear
10:35 AM 71.6 °F - 32.0 °F 23% 30.11 in 10.0 mi SSE 13.8 mph - N/A   Clear
10:55 AM 73.6 °F - 32.5 °F 22% 30.10 in 10.0 mi South 12.7 mph - N/A   Clear
11:15 AM 74.8 °F - 32.0 °F 21% 30.09 in 10.0 mi SSE 11.5 mph - N/A   Clear
11:35 AM 77.5 °F - 32.5 °F 19% 30.08 in 10.0 mi South 12.7 mph 19.6 mph N/A   Clear
11:55 AM 78.1 °F - 32.4 °F 19% 30.08 in 10.0 mi SSE 15.0 mph 20.7 mph N/A   Clear
12:15 PM 79.9 °F - 32.4 °F 18% 30.07 in 10.0 mi South 13.8 mph 21.9 mph N/A   Clear
12:35 PM 81.5 °F - 32.7 °F 17% 30.06 in 10.0 mi South 13.8 mph 18.4 mph N/A   Clear
12:55 PM 82.6 °F - 30.6 °F 15% 30.05 in 10.0 mi South 15.0 mph 23.0 mph N/A   Clear
1:15 PM 84.2 °F - 27.9 °F 13% 30.04 in 10.0 mi South 18.4 mph 25.3 mph N/A   Clear
1:35 PM 85.1 °F - 25.9 °F 12% 30.03 in 7.0 mi SSW 17.3 mph 26.5 mph N/A   Clear
1:55 PM 86.2 °F - 22.6 °F 10% 30.01 in 7.0 mi SSW 19.6 mph 26.5 mph N/A   Clear
2:15 PM 86.7 °F - 21.4 °F 9% 30.00 in 7.0 mi South 18.4 mph 28.8 mph N/A   Clear
2:35 PM 88.5 °F - 21.2 °F 9% 29.99 in 7.0 mi SSE 19.6 mph 27.6 mph N/A   Clear
2:55 PM 88.7 °F - 18.9 °F 8% 29.98 in 10.0 mi South 25.3 mph 31.1 mph N/A   Clear
3:15 PM 89.1 °F - 18.9 °F 8% 29.97 in 7.0 mi South 23.0 mph 31.1 mph N/A   Clear
3:35 PM 89.2 °F - 17.8 °F 7% 29.96 in 10.0 mi SSW 18.4 mph 28.8 mph N/A   Clear
3:55 PM 90.5 °F - 17.1 °F 7% 29.95 in 10.0 mi SSE 21.9 mph 29.9 mph N/A   Clear
4:15 PM 89.8 °F - 14.9 °F 6% 29.94 in 7.0 mi South 19.6 mph 31.1 mph N/A   Clear
4:35 PM 90.0 °F - 16.7 °F 7% 29.92 in 10.0 mi South 24.2 mph 28.8 mph N/A   Clear
4:55 PM 89.8 °F - 20.7 °F 8% 29.92 in 10.0 mi South 20.7 mph 26.5 mph N/A   Clear
5:35 PM 88.9 °F - 17.2 °F 7% 29.90 in 10.0 mi South 19.6 mph 27.6 mph N/A   Clear
5:55 PM 88.5 °F - 17.2 °F 7% 29.90 in 10.0 mi South 24.2 mph 29.9 mph N/A   Clear
6:35 PM 87.8 °F - 17.2 °F 7% 29.90 in 10.0 mi South 19.6 mph 31.1 mph N/A   Clear
6:55 PM 87.4 °F - 16.5 °F 7% 29.89 in 10.0 mi South 21.9 mph 26.5 mph N/A   Clear
7:15 PM 86.5 °F - 16.5 °F 7% 29.89 in 10.0 mi South 21.9 mph 28.8 mph N/A   Clear
7:35 PM 85.3 °F - 17.8 °F 8% 29.89 in 10.0 mi South 18.4 mph - N/A   Clear
7:55 PM 83.7 °F - 19.6 °F 9% 29.89 in 10.0 mi South 16.1 mph 21.9 mph N/A   Clear
8:15 PM 81.3 °F - 18.5 °F 10% 29.89 in 10.0 mi South 15.0 mph - N/A   Clear
8:35 PM 78.8 °F - 21.9 °F 12% 29.89 in 10.0 mi South 11.5 mph - N/A   Clear
9:15 PM 73.0 °F - 26.2 °F 18% 29.90 in 10.0 mi South 12.7 mph - N/A   Clear
9:35 PM 72.7 °F - 26.4 °F 18% 29.91 in 10.0 mi South 13.8 mph - N/A   Clear
9:55 PM 71.8 °F - 27.5 °F 19% 29.91 in 10.0 mi South 13.8 mph - N/A   Clear
10:15 PM 72.5 °F - 26.6 °F 18% 29.91 in 10.0 mi South 17.3 mph - N/A   Clear
10:35 PM 72.9 °F - 26.2 °F 18% 29.91 in 10.0 mi South 19.6 mph - N/A   Clear
10:55 PM 71.6 °F - 27.0 °F 19% 29.91 in 10.0 mi South 19.6 mph 24.2 mph N/A   Clear
11:15 PM 70.5 °F - 27.5 °F 20% 29.91 in 10.0 mi South 19.6 mph - N/A   Clear
11:35 PM 69.8 °F - 27.5 °F 21% 29.91 in 10.0 mi South 17.3 mph - N/A   Clear
11:55 PM 68.9 °F - 28.0 °F 22% 29.90 in 10.0 mi South 16.1 mph - N/A   Clear